Location: Camps Bay
(33.9517°S, 18.3844°E)
Time: 01:34:39
(UTC+00:00)

Cosmos 2344 - Pass Details

Date: 18 January 2020
Orbit: 1254 x 2988 km, 63.3° (Epoch: 28 February)

Event Time Altitude Azimuth Distance (km) Brightness Sun altitude
Rises 00:58:49 0° 213° (SSW) 6,248 7.5 -28.1°
Reaches altitude 10° 01:03:01 10° 213° (SSW) 5,010 6.9 -27.6°
Maximum altitude 01:15:49 75° 295° (WNW) 1,904 4.2 -26.1°
Enters shadow 01:23:52 15° 18° (NNE) 3,328 5.4 -25.1°
